Weather History for Kalispell, MT

Change the Weather History Date:

Tuesday, November 13, 2012

  Actual Average Record
Temperature  
Mean Temperature 34 °F 33 °F  
Max Temperature 41 °F 41 °F 58 °F (1999)
Min Temperature 27 °F 25 °F -19 °F (1959)
Degree Days  
Heating Degree Days 31 32  
Month to date heating degree days 369 394  
Since 1 July heating degree days 1452 1602  
Cooling Degree Days 0 0  
Month to date cooling degree days 0 0  
Year to date cooling degree days 192 147  
Moisture  
Dew Point 32 °F    
Average Humidity 87    
Maximum Humidity 100    
Minimum Humidity 73    
Precipitation  
Precipitation T in 0.05 in 0.37 in (1949)
Month to date precipitation 0.28 0.60  
Year to date precipitation 17.89 14.60  
Snow  
Snow T in - - ()
Month to date snowfall 0.3  
Year to date snowfall 27.4  
Since 1 July snowfall 2.3  
Snow Depth 0.00 in    
Sea Level Pressure  
Sea Level Pressure 30.22 in    
Wind  
Wind Speed 3 mph (SSW)    
Max Wind Speed 10 mph    
Max Gust Speed 15 mph    
Visibility 9 miles    
Events Rain    
T = Trace of Precipitation, MM = Missing Value Source: NWS Daily Summary

Daily Weather History Graph

Daily Weather History Graph

Search for Another Location

Airport:

Trip Planner

Search our weather history database for the weather conditions in past years. The results will help you decide how hot, cold, wet, or windy it might be!

Date:

Astronomy

Nov. 13, 2012 Rise Set
Actual Time 7:42 AM MST 5:00 PM MST
Civil Twilight 7:08 AM MST 5:34 PM MST
Nautical Twilight 6:30 AM MST 6:11 PM MST
Astronomical Twilight 5:53 AM MST 6:48 PM MST
Moon 7:26 AM MST (11/13) 4:54 PM MST (11/13)
Length of Visible Light 10h 25m
Length of Day
9h 17m
Waning Crescent, 0% of the Moon is Illuminated
Nov 13
Waning Crescent
Nov 13
New
Nov 20
First Quarter
Nov 28
Full
Dec 6
Last Quarter

Hourly Weather History & Observations

Time (MST) Temp. Windchill Dew Point Humidity Pressure Visibility Wind Dir Wind Speed Gust Speed Precip Events Conditions
12:55 AM 30.9 °F 27.5 °F 30.0 °F 96% 30.28 in 6.0 mi West 3.5 mph - N/A   Overcast
1:23 AM 30.2 °F - 30.2 °F 100% 30.20 in 7.0 mi Calm Calm - N/A   Overcast
1:42 AM 30.2 °F - 30.2 °F 100% 30.20 in 7.0 mi Calm Calm - N/A   Overcast
1:55 AM 30.9 °F - 30.0 °F 96% 30.29 in 6.0 mi Calm Calm - N/A   Overcast
2:02 AM 30.2 °F - 30.2 °F 100% 30.21 in 6.0 mi Calm Calm - N/A   Overcast
2:16 AM 30.2 °F - 30.2 °F 100% 30.21 in 7.0 mi Calm Calm - N/A   Overcast
2:55 AM 30.0 °F 26.5 °F 30.0 °F 100% 30.30 in 7.0 mi SW 3.5 mph - N/A   Overcast
3:07 AM 30.2 °F - 30.2 °F 100% 30.21 in 7.0 mi Calm Calm - N/A   Overcast
3:55 AM 30.0 °F - 28.9 °F 96% 30.29 in 9.0 mi Calm Calm - N/A   Overcast
4:55 AM 30.2 °F - 28.4 °F 93% 30.21 in 9.0 mi Calm Calm - N/A   Overcast
5:55 AM 28.0 °F 24.2 °F 27.0 °F 96% 30.29 in 10.0 mi WSW 3.5 mph - N/A   Overcast
6:55 AM 28.0 °F - 27.0 °F 96% 30.29 in 6.0 mi Calm Calm - N/A   Overcast
7:55 AM 28.0 °F - 27.0 °F 96% 30.29 in 7.0 mi Calm Calm - N/A   Overcast
8:55 AM 30.9 °F - 28.9 °F 92% 30.30 in 6.0 mi Calm Calm - N/A   Overcast
9:55 AM 33.1 °F - 30.9 °F 92% 30.29 in 7.0 mi Calm Calm - N/A   Overcast
10:55 AM 34.0 °F - 30.9 °F 89% 30.30 in 9.0 mi Calm Calm - N/A   Overcast
11:55 AM 35.1 °F 32.2 °F 32.0 °F 89% 30.28 in 10.0 mi SW 3.5 mph - N/A   Overcast
12:55 PM 37.9 °F - 34.0 °F 86% 30.25 in 10.0 mi Calm Calm - N/A   Overcast
1:55 PM 41.0 °F 36.4 °F 35.1 °F 79% 30.23 in 10.0 mi South 6.9 mph - N/A   Overcast
2:55 PM 41.0 °F 36.4 °F 34.0 °F 76% 30.22 in 10.0 mi South 6.9 mph - N/A   Overcast
3:55 PM 41.0 °F 36.4 °F 34.0 °F 76% 30.21 in 10.0 mi South 6.9 mph - N/A   Overcast
4:55 PM 39.0 °F - 35.1 °F 86% 30.21 in 10.0 mi Calm Calm - 0.00 in Rain Light Rain
5:31 PM 37.4 °F 34.9 °F 35.6 °F 93% 30.14 in 10.0 mi WSW 3.5 mph - 0.00 in   Overcast
5:55 PM 37.9 °F 32.1 °F 35.1 °F 89% 30.22 in 10.0 mi South 8.1 mph - 0.00 in   Overcast
6:18 PM 37.4 °F 31.4 °F 35.6 °F 93% 30.14 in 10.0 mi South 8.1 mph - N/A   Overcast
6:45 PM 37.4 °F 31.4 °F 35.6 °F 93% 30.14 in 10.0 mi South 8.1 mph - N/A   Overcast
6:55 PM 37.9 °F 31.5 °F 35.1 °F 89% 30.22 in 10.0 mi South 9.2 mph - N/A   Overcast
7:30 PM 35.6 °F 29.2 °F 33.8 °F 93% 30.13 in 10.0 mi SSE 8.1 mph - N/A   Overcast
7:51 PM 35.6 °F 30.7 °F 33.8 °F 93% 30.13 in 10.0 mi SSE 5.8 mph - N/A   Mostly Cloudy
7:55 PM 35.1 °F 29.3 °F 34.0 °F 96% 30.21 in 10.0 mi South 6.9 mph - N/A   Mostly Cloudy
8:06 PM 35.6 °F 29.2 °F 33.8 °F 93% 30.13 in 10.0 mi SSE 8.1 mph - N/A   Overcast
8:55 PM 36.0 °F 30.3 °F 34.0 °F 93% 30.20 in 10.0 mi South 6.9 mph - N/A   Overcast
9:55 PM 35.1 °F 31.0 °F 33.1 °F 92% 30.20 in 10.0 mi WNW 4.6 mph - N/A   Overcast
10:55 PM 35.1 °F 30.1 °F 34.0 °F 96% 30.19 in 10.0 mi SSW 5.8 mph - N/A   Overcast
11:55 PM 35.1 °F 32.2 °F 33.1 °F 92% 30.18 in 10.0 mi SSW 3.5 mph - N/A   Overcast